Home > Weather > Wellington > Past weeks

Flag for New Zealand Weather for the Past 2 Weeks in Wellington, New Zealand

Now
64 °F

Sprinkles. Passing clouds.


Feels Like: 64 °F
Forecast: 55 / 64 °F
Wind: 23 mph from North

Location: Wellington Airport

Current Time: May 5, 2016 at 6:06:52 AM

Latest Report: May 5, 2016 at 5:30 AM


Visibility: N/A

Pressure: 30.01 "Hg

Humidity: 88%

Dew Point: 61 °F

Location of WellingtonLocation

Historic Weather in Wellington — Graph

°F

Wellington Temperature Yesterday

Maximum temperature yesterday: 68 °F (at 2:00 PM)
Minimum temperature yesterday: 64 °F (at 12:00 AM)
Average temperature yesterday: 66 °F

High & Low Weather Summary for the Past Weeks

 TemperatureHumidityPressure
High68 °F (Apr 20, 12:00 PM)100% (Apr 21, 1:00 AM)30.48 "Hg (Apr 21, 1:00 AM)
Low48 °F (Apr 27, 6:30 AM)46% (Apr 26, 11:30 AM)29.77 "Hg (Apr 24, 1:00 AM)
Average60 °F76%30.16 "Hg
* Reported Apr 20 4:00 AM — May 5 4:30 AM, Wellington, Weather by CustomWeather, © 2016

Note: Actual official high and low records may vary slightly from our data, if they occured in-between our weather recording intervals... More about our weather records

Advertising

Wellington Weather History for the Previous 24 Hours

Scroll right to see more
 ConditionsComfort  
Time TempWeatherWind HumidityBarometerVisibility
4:30 AM
Thu, May 5
64 °FPassing clouds.25 mph83%30.01 "HgN/A
4:00 AM64 °FOvercast.28 mph88%30.01 "HgN/A
3:30 AM64 °FSprinkles. Passing clouds.29 mph83%30.01 "HgN/A
2:30 AM66 °FPassing clouds.23 mph78%30.01 "HgN/A
2:00 AM66 °FPassing clouds.25 mph78%30.01 "HgN/A
1:30 AM66 °FPassing clouds.23 mph78%30.01 "HgN/A
1:00 AM66 °FOvercast.24 mph78%30.01 "HgN/A
12:30 AM66 °FOvercast.26 mph78%30.04 "HgN/A
11:00 PM
Wed, May 4
66 °FPassing clouds.26 mph78%30.04 "HgN/A
10:30 PM66 °FPassing clouds.23 mph78%30.07 "HgN/A
10:00 PM66 °FPassing clouds.21 mph78%30.07 "HgN/A
9:30 PM66 °FPassing clouds.25 mph73%30.07 "HgN/A
9:00 PM66 °FPassing clouds.23 mph73%30.07 "HgN/A
8:00 PM64 °FPassing clouds.22 mph78%30.07 "HgN/A
7:30 PM66 °FPassing clouds.20 mph78%30.07 "HgN/A
7:00 PM66 °FPassing clouds.17 mph78%30.07 "HgN/A
6:30 PM66 °FPassing clouds.15 mph78%30.09 "HgN/A
6:00 PM66 °FPassing clouds.18 mph78%30.09 "HgN/A
5:30 PM66 °FPassing clouds.20 mph78%30.07 "HgN/A
5:00 PM66 °FPassing clouds.20 mph78%30.09 "HgN/A
4:30 PM66 °FPassing clouds.17 mph78%30.09 "HgN/A
4:00 PM66 °FPartly sunny.17 mph78%30.09 "HgN/A
3:30 PM66 °FPartly sunny.21 mph78%30.09 "HgN/A
3:00 PM68 °FMostly cloudy.18 mph73%30.09 "HgN/A
2:30 PM68 °FPartly sunny.18 mph73%30.09 "HgN/A
2:00 PM68 °FPartly sunny.22 mph73%30.09 "HgN/A
1:30 PM66 °FOvercast.24 mph78%30.12 "HgN/A
1:00 PM66 °FPartly sunny.22 mph78%30.12 "HgN/A
12:30 PM66 °FOvercast.23 mph78%30.12 "HgN/A
12:00 PM66 °FPartly sunny.16 mph78%30.15 "HgN/A
11:30 AM66 °FPartly sunny.17 mph78%30.15 "HgN/A
11:00 AM66 °FPartly sunny.20 mph78%30.15 "HgN/A
10:30 AM66 °FPartly sunny.18 mph78%30.15 "HgN/A
10:00 AM66 °FPartly sunny.22 mph78%30.15 "HgN/A
9:30 AM66 °FOvercast.17 mph78%30.15 "HgN/A
9:00 AM66 °FPartly sunny.18 mph83%30.15 "HgN/A
8:30 AM64 °FOvercast.21 mph88%30.15 "HgN/A
8:00 AM64 °FOvercast.18 mph88%30.12 "HgN/A
7:30 AM64 °FOvercast.17 mph83%30.12 "HgN/A
7:00 AM64 °FPartly sunny.18 mph88%30.12 "HgN/A
6:30 AM64 °FPartly sunny.17 mph88%30.09 "HgN/A
6:00 AM64 °FPassing clouds.21 mph88%30.09 "HgN/A
Weather by CustomWeather, © 2016

See weather overviewHow to use our weather pages